Location: *
(28.2408°N, 53.4600°E)
Time: 01:38:17
(UTC+00:00)

Cosmos 2219 - Pass Details

Date: 22 September 2019
Orbit: 834 x 860 km, 71.1° (Epoch: 12 October)

Event Time Altitude Azimuth Distance (km) Brightness Sun altitude
Rises 14:37:42 0° 190° (S) 3,413 6.5 -4.0°
Reaches altitude 10° 14:40:09 10° 187° (S) 2,482 5.7 -4.5°
Maximum altitude 14:45:48 65° 106° (ESE) 938 3.3 -5.8°
Drops below altitude 10° 14:51:29 10° 26° (NNE) 2,495 5.4 -7.0°
Sets 14:53:57 0° 23° (NNE) 3,433 6.2 -7.6°
